EW7144 Weather Reports


time (UTC)temp
C
wind
direction
speed
KPH
gust
KPH
rain 1hr
cm
rain 24hr
cm
rain mn
cm
humidity
%
barometer
mb
20260509032406 14 206 16.1 37.0 0.00 3.33 0.13 75 999.2
20260509031407 14 216 19.3 40.2 0.00 3.33 0.13 76 999.2
20260509030906 14 219 14.5 40.2 0.00 3.33 0.13 76 999.2
20260509030406 14 183 11.3 33.8 0.00 3.33 0.13 76 999.2
20260509025406 15 220 14.5 33.8 0.00 3.35 0.13 76 999.3
20260509024906 15 198 17.7 38.6 0.00 3.38 0.13 75 999.5
20260509024407 15 224 16.1 40.2 0.00 3.43 0.13 75 999.3
20260509023907 15 217 14.5 35.4 0.00 3.48 0.13 75 999.3
20260509022906 15 230 12.9 32.2 0.00 3.53 0.13 76 999.2
20260509022406 15 303 11.3 29.0 0.00 3.56 0.13 77 999.2
20260509021406 15 328 16.1 46.7 0.00 3.61 0.13 79 999.2
20260509020906 15 329 14.5 37.0 0.00 3.61 0.13 78 999.1
20260509020407 15 205 16.1 35.4 0.00 3.61 0.13 77 999.0
20260509015407 15 231 9.7 25.7 0.00 3.63 0.13 76 999.0
20260509014906 16 338 11.3 32.2 0.00 3.63 0.13 75 998.9
20260509014406 16 236 14.5 35.4 0.00 3.63 0.13 75 998.8
20260509013906 16 245 11.3 33.8 0.00 3.66 0.13 77 998.9
20260509013407 16 262 16.1 37.0 0.00 3.66 0.13 77 998.8
20260509012906 16 251 12.9 33.8 0.00 3.66 0.13 77 998.7
20260509012406 16 228 14.5 33.8 0.00 3.66 0.13 76 998.7
20260509011906 16 244 14.5 40.2 0.00 3.66 0.13 76 998.8
20260509011406 16 197 16.1 38.6 0.00 3.66 0.13 76 998.9
20260509010906 15 335 11.3 32.2 0.00 3.66 0.13 78 999.0
20260509005906 15 254 11.3 29.0 0.00 3.66 0.13 79 999.1
20260509005407 15 221 16.1 32.2 0.00 3.68 0.13 79 999.0
20260509004907 15 203 16.1 33.8 0.00 3.68 0.13 79 999.0
20260509004407 15 215 14.5 40.2 0.00 3.68 0.13 79 999.0
20260509003908 15 201 14.5 32.2 0.00 3.68 0.13 80 999.0
20260509002906 15 209 16.1 32.2 0.00 3.68 0.13 81 999.2
20260509001408 15 195 16.1 32.2 0.00 3.68 0.13 81 999.2
20260509000407 15 223 14.5 35.4 0.00 3.68 0.13 82 999.2
20260508235906 15 218 16.1 37.0 0.00 3.68 0.13 83 999.1
20260508235406 15 327 16.1 33.8 0.00 3.68 0.13 83 999.1
20260508234907 15 225 16.1 37.0 0.00 3.68 0.13 84 999.1
20260508234407 15 213 17.7 37.0 0.00 3.68 0.13 85 999.1
20260508233907 15 279 12.9 38.6 0.00 3.68 0.13 87 999.1
20260508233408 15 211 16.1 38.6 0.03 3.68 0.13 87 999.0
20260508232907 15 346 14.5 33.8 0.03 3.68 0.13 88 998.9
20260508232407 15 276 9.7 32.2 0.03 3.68 0.13 88 999.0
20260508231907 15 296 14.5 35.4 0.03 3.68 0.13 89 999.0
20260508231408 15 248 11.3 24.1 0.03 3.68 0.13 89 999.1
20260508230906 15 221 9.7 27.4 0.03 3.68 0.13 89 999.0
20260508230407 15 258 11.3 29.0 0.03 3.68 0.13 89 999.0
20260508225409 14 320 9.7 24.1 0.05 3.68 0.13 89 999.0
20260508224907 15 308 6.4 22.5 0.05 3.68 0.13 89 999.0
20260508224407 15 264 11.3 20.9 0.05 3.71 0.13 89 998.9
20260508223907 15 209 12.9 35.4 0.05 3.71 0.13 88 998.8
20260508223408 15 243 14.5 37.0 0.03 3.68 0.10 89 998.5
20260508222408 15 323 14.5 32.2 0.03 3.68 0.10 89 998.5
20260508221907 15 335 14.5 35.4 0.05 3.68 0.10 89 998.4
20260508221407 15 341 11.3 33.8 0.05 3.68 0.10 89 998.4
20260508220907 14 273 9.7 22.5 0.05 3.68 0.10 89 998.4
20260508220407 14 357 8.0 19.3 0.05 3.68 0.10 89 998.3
20260508215907 14 252 9.7 24.1 0.05 3.68 0.10 89 998.2
20260508215407 14 249 8.0 22.5 0.05 3.66 0.08 90 998.3
20260508214906 14 319 8.0 25.7 0.05 3.66 0.08 90 998.2
20260508213907 13 285 9.7 25.7 0.05 3.71 0.08 89 998.1
20260508212909 14 248 9.7 22.5 0.05 3.71 0.08 89 998.1
20260508212407 14 326 6.4 22.5 0.05 3.71 0.08 90 998.1
20260508211907 14 352 6.4 19.3 0.05 3.68 0.05 89 998.1
20260508211408 14 302 4.8 19.3 0.03 3.66 0.05 89 998.1
20260508210907 14 217 4.8 14.5 0.03 3.66 0.05 89 998.0
20260508205906 14 290 4.8 14.5 0.03 3.66 0.05 89 998.0
20260508205407 14 253 6.4 14.5 0.03 3.66 0.05 89 998.0
20260508204907 14 287 4.8 19.3 0.03 3.66 0.05 88 997.9
20260508203906 14 291 3.2 14.5 0.00 3.63 0.03 88 997.7
20260508203406 14 226 6.4 12.9 0.00 3.63 0.03 88 997.6
20260508202906 14 213 3.2 12.9 0.00 3.63 0.03 88 997.5
20260508202407 14 306 6.4 19.3 0.00 3.63 0.03 87 997.5
20260508201907 14 303 4.8 24.1 0.00 3.63 0.03 87 997.5
20260508201407 15 265 4.8 19.3 0.00 3.63 0.03 86 997.5
20260508200906 15 239 6.4 19.3 0.00 3.63 0.03 85 997.5
20260508200407 15 285 9.7 25.7 0.00 3.63 0.03 84 997.3
20260508194906 15 339 16.1 32.2 0.00 3.63 0.03 84 997.2
20260508194408 15 345 14.5 32.2 0.00 3.63 0.03 84 997.1
20260508193408 15 343 19.3 35.4 0.00 3.63 0.03 83 996.9
20260508192408 15 344 19.3 37.0 0.00 3.63 0.03 83 996.8
20260508191907 15 339 20.9 33.8 0.00 3.63 0.03 84 997.0
20260508191408 15 352 22.5 38.6 0.00 3.63 0.03 84 996.9
20260508190906 15 337 20.9 37.0 0.00 3.63 0.03 84 996.8
20260508190408 15 353 19.3 35.4 0.00 3.63 0.03 84 996.7
20260508185407 15 351 19.3 41.8 0.00 3.66 0.03 84 996.6
20260508183906 15 346 20.9 37.0 0.00 3.76 0.03 84 996.7
20260508183407 15 340 20.9 40.2 0.00 3.81 0.03 84 996.9
20260508182907 15 344 12.9 33.8 0.00 3.81 0.03 83 996.9
20260508182406 15 352 16.1 32.2 0.00 3.81 0.03 82 997.0
20260508181906 15 349 20.9 37.0 0.00 3.84 0.03 82 997.1
20260508181408 15 337 19.3 35.4 0.00 3.86 0.03 81 997.2
20260508180408 15 343 16.1 32.2 0.00 3.91 0.03 83 997.3
20260508175907 16 332 20.9 40.2 0.00 3.94 0.03 82 997.4
20260508175408 16 352 19.3 48.3 0.00 3.99 0.03 81 997.5
20260508174906 16 346 17.7 38.6 0.00 4.04 0.03 81 997.5
20260508174408 16 352 14.5 32.2 0.00 4.09 0.03 81 997.5
20260508173906 16 351 19.3 38.6 0.00 4.27 0.03 80 997.6
20260508173408 16 344 22.5 40.2 0.00 4.47 0.03 81 997.6
20260508172907 16 353 25.7 41.8 0.00 4.47 0.03 81 997.6
20260508172407 15 348 22.5 49.9 0.00 4.50 0.03 82 997.7
20260508171907 15 348 19.3 32.2 0.00 4.52 0.03 82 997.7
20260508171408 15 344 19.3 41.8 0.00 4.55 0.03 82 997.7
20260508170907 15 353 16.1 37.0 0.00 4.55 0.03 82 997.7
20260508170407 15 354 20.9 40.2 0.00 4.57 0.03 82 997.7
20260508165906 16 352 20.9 41.8 0.00 4.60 0.03 82 997.6
20260508165408 16 8 29.0 56.3 0.00 4.62 0.03 81 997.7
20260508164906 16 346 14.5 32.2 0.00 4.65 0.03 80 997.5
20260508164408 16 356 17.7 40.2 0.00 4.67 0.03 80 997.6
20260508163408 16 353 20.9 56.3 0.00 4.75 0.03 79 997.5
20260508162907 16 349 24.1 41.8 0.03 4.75 0.03 81 997.4
20260508161407 16 344 20.9 40.2 0.03 4.83 0.03 82 997.3
20260508160906 16 351 17.7 38.6 0.03 4.83 0.03 83 997.3
20260508160408 15 347 19.3 35.4 0.03 4.83 0.03 83 997.4
20260508155906 15 341 20.9 35.4 0.03 4.85 0.03 83 997.5
20260508155407 15 345 19.3 41.8 0.03 4.85 0.03 83 997.7
20260508154906 15 341 27.4 51.5 0.03 4.85 0.03 83 997.7
20260508153907 15 344 25.7 41.8 0.03 4.85 0.03 84 997.7
20260508153407 16 344 29.0 62.8 0.03 4.85 0.03 83 997.7
20260508152907 16 347 27.4 53.1 0.00 4.85 0.00 82 997.6
20260508152408 16 354 22.5 41.8 0.00 4.85 0.00 82 997.4
20260508151910 16 355 24.1 46.7 0.00 4.85 0.00 82 997.5
20260508150906 16 358 27.4 48.3 0.00 4.85 0.00 80 997.8
20260508145906 16 1 27.4 45.1 0.00 4.85 0.00 78 997.6
20260508144906 16 350 25.7 41.8 0.00 4.85 0.00 79 997.7
20260508143907 16 351 25.7 41.8 0.00 4.85 0.00 80 997.9
20260508143406 16 348 29.0 48.3 0.00 4.85 0.00 78 998.0
20260508142906 17 345 22.5 56.3 0.00 4.85 0.00 77 998.0
20260508142406 17 340 24.1 41.8 0.00 4.85 0.00 77 998.1
20260508141406 16 350 25.7 48.3 0.00 4.85 0.00 77 998.2
20260508140907 16 348 32.2 53.1 0.00 4.85 0.00 78 998.2
20260508140407 16 346 22.5 46.7 0.00 4.85 0.00 80 998.4
20260508135906 16 334 24.1 41.8 0.00 4.85 0.00 80 998.3
20260508135407 16 350 27.4 56.3 0.00 4.85 0.00 80 998.3
20260508134906 16 1 25.7 41.8 0.00 4.85 0.00 80 998.3
20260508134406 16 350 25.7 41.8 0.00 4.85 0.00 79 998.2
20260508133906 16 359 25.7 45.1 0.00 4.88 0.00 80 998.2
20260508133406 16 355 24.1 41.8 0.00 4.88 0.00 81 998.1
20260508132907 16 346 24.1 56.3 0.00 4.93 0.00 81 998.2
20260508132406 16 352 20.9 48.3 0.00 4.98 0.00 82 998.0
20260508131906 16 348 19.3 46.7 0.00 5.00 0.00 82 998.1
20260508131406 16 354 20.9 37.0 0.00 5.03 0.00 82 998.0
20260508130906 16 355 20.9 40.2 0.00 5.03 0.00 82 998.2
20260508130407 16 333 20.9 35.4 0.00 5.03 0.00 82 998.2
20260508125906 16 352 20.9 38.6 2.62 5.05 0.00 81 998.1
20260508125406 16 355 24.1 38.6 2.62 5.08 0.00 81 998.2
20260508124907 16 355 19.3 41.8 2.62 5.13 0.00 81 998.3
20260508124406 16 0 24.1 41.8 2.62 5.13 0.00 81 998.4
20260508123906 16 358 25.7 40.2 2.62 5.16 0.00 80 998.5
20260508123406 16 350 20.9 40.2 2.62 5.16 0.00 79 998.5
20260508122906 16 340 25.7 48.3 2.62 5.18 0.00 79 998.5
20260508122406 16 0 25.7 45.1 2.62 5.21 0.00 81 998.6
20260508121906 17 357 22.5 46.7 2.62 5.21 0.00 82 998.5
20260508121407 17 352 19.3 38.6 2.62 5.23 0.00 82 998.5
20260508120907 17 347 19.3 33.8 2.62 5.23 0.00 82 998.5
20260508120407 17 350 17.7 35.4 2.62 5.23 0.00 82 998.6
20260508115906 17 346 16.1 33.8 0.00 4.70 2.62 82 998.5
20260508115406 17 358 19.3 41.8 0.00 4.70 2.62 82 998.6
20260508114906 17 358 20.9 41.8 0.00 4.70 2.62 82 998.6
20260508114406 17 353 22.5 37.0 0.00 4.72 2.62 82 998.8
20260508113907 17 340 20.9 35.4 0.00 4.72 2.62 82 998.7
20260508113406 17 356 20.9 35.4 0.00 4.75 2.62 82 998.8
20260508112906 17 348 20.9 37.0 0.00 4.75 2.62 82 999.0
20260508111906 16 346 20.9 33.8 0.00 4.75 2.62 82 999.1
20260508111409 16 348 16.1 32.2 0.00 4.75 2.62 82 999.1
20260508110406 16 354 16.1 37.0 0.00 4.75 2.62 81 999.3
20260508105406 17 359 19.3 41.8 0.00 4.78 2.62 81 999.5
20260508103907 16 344 14.5 32.2 0.03 4.85 2.62 81 999.5
20260508103406 16 352 19.3 29.0 0.03 4.90 2.62 81 999.6
20260508102407 16 350 20.9 37.0 0.03 4.93 2.62 81 999.8
20260508101406 16 355 20.9 37.0 0.03 4.98 2.62 82 999.8
20260508100907 16 350 22.5 41.8 0.03 5.03 2.62 83 999.8
20260508100406 16 344 20.9 38.6 0.03 5.05 2.62 84 999.8
20260508095406 16 346 16.1 38.6 0.03 5.11 2.62 85 999.7
20260508094906 16 347 17.7 33.8 0.03 5.16 2.62 85 999.7
20260508094406 16 349 19.3 59.5 0.03 5.18 2.62 86 999.8
20260508093906 16 357 20.9 35.4 0.00 5.21 2.59 87 999.7
20260508093406 16 357 17.7 37.0 0.00 5.23 2.59 87 999.7
20260508092906 16 342 16.1 33.8 0.00 5.26 2.59 87 999.7
20260508092406 16 350 22.5 40.2 0.00 5.28 2.59 87 999.7
20260508091906 16 338 20.9 41.8 0.00 5.28 2.59 86 999.5
20260508091406 16 345 19.3 35.4 0.00 5.31 2.59 85 999.5
20260508090907 16 351 25.7 46.7 0.00 5.31 2.59 87 999.7
20260508090407 16 344 19.3 41.8 0.00 5.33 2.59 87 999.6
20260508085906 16 345 25.7 45.1 0.00 5.33 2.59 88 999.6
20260508085406 16 357 12.9 32.2 0.00 5.36 2.59 88 999.3
20260508084906 16 0 22.5 51.5 0.00 5.41 2.59 88 999.4
20260508084407 16 356 25.7 49.9 0.00 5.44 2.59 88 999.4
20260508083406 16 20 27.4 38.6 0.00 5.49 2.59 88 999.7
20260508082906 16 16 17.7 41.8 0.00 5.49 2.59 88 999.6
20260508081906 16 11 20.9 38.6 0.00 5.51 2.59 88 999.9
20260508080906 16 15 22.5 41.8 0.00 5.54 2.59 89 999.9
20260508080406 16 12 22.5 41.8 0.00 5.56 2.59 89 1000.0
20260508075906 16 17 19.3 33.8 0.00 5.59 2.59 89 1000.2
20260508074907 16 9 14.5 29.0 0.00 5.64 2.59 89 1000.4
20260508074406 16 9 11.3 29.0 0.00 5.64 2.59 89 1000.5
20260508073906 16 3 16.1 33.8 0.00 5.66 2.59 89 1000.5
20260508073406 16 354 14.5 33.8 0.00 5.69 2.59 89 1000.7
20260508072908 16 348 14.5 32.2 0.00 5.69 2.59 89 1000.7
20260508072408 16 351 14.5 33.8 0.00 5.69 2.59 89 1000.7
20260508071906 16 10 20.9 40.2 0.00 5.69 2.59 89 1000.7
20260508065906 15 348 14.5 40.2 0.00 5.71 2.59 90 1000.8
20260508065407 15 342 14.5 32.2 0.00 5.71 2.59 90 1000.8
20260508064908 15 345 14.5 32.2 0.00 5.71 2.59 90 1000.7
20260508064407 15 347 16.1 29.0 0.03 5.71 2.59 90 1000.7
20260508063406 15 356 14.5 32.2 0.08 5.77 2.59 90 1000.5
20260508062906 15 346 20.9 41.8 0.08 5.79 2.59 90 1000.6
20260508062406 15 349 11.3 29.0 0.13 5.79 2.59 90 1000.7
20260508061906 15 345 14.5 32.2 0.15 5.79 2.59 90 1000.7
20260508061406 15 355 14.5 32.2 0.18 5.84 2.59 90 1000.8
20260508060907 15 351 11.3 24.1 0.23 5.87 2.59 90 1000.7
20260508060407 15 358 16.1 33.8 0.30 5.89 2.59 90 1000.7
20260508055907 15 356 14.5 27.4 0.33 5.94 2.59 90 1000.7
20260508055406 15 32 16.1 41.8 0.33 5.99 2.59 90 1000.7
20260508054907 15 13 22.5 40.2 0.41 6.05 2.59 90 1000.6
20260508053907 16 353 19.3 38.6 0.41 6.07 2.57 90 1000.7
20260508053406 16 2 19.3 40.2 0.36 6.07 2.51 91 1000.6
20260508052906 16 350 14.5 45.1 0.38 6.10 2.51 91 1000.7
20260508052407 16 14 35.4 62.8 0.36 6.07 2.49 91 1000.8
20260508051907 16 11 25.7 45.1 0.33 6.15 2.46 91 1000.6
20260508051406 16 1 27.4 61.2 0.33 6.12 2.41 91 1000.7
20260508050406 17 13 40.2 62.8 0.20 5.99 2.31 91 1000.6
20260508045906 16 7 32.2 59.5 0.15 5.97 2.26 90 1000.1
20260508045406 16 13 32.2 62.8 0.15 5.97 2.26 90 1000.8
20260508044907 16 15 32.2 61.2 0.13 5.92 2.21 90 1000.8
20260508044406 16 359 41.8 66.0 0.10 5.89 2.18 90 1000.5
20260508043907 17 6 25.7 59.5 0.08 5.87 2.16 90 1000.6
20260508043407 17 12 33.8 64.4 0.10 5.87 2.16 90 1000.7
20260508042406 16 18 32.2 69.2 0.08 5.84 2.11 90 1000.7
20260508041906 16 17 38.6 62.8 0.08 5.87 2.11 90 1000.8
20260508040906 16 15 32.2 53.1 0.08 5.84 2.11 90 1001.1
20260508035906 16 8 30.6 61.2 0.10 5.84 2.11 90 1001.4
20260508035406 16 8 40.2 66.0 0.10 5.84 2.11 90 1001.5
20260508034406 16 28 27.4 56.3 0.15 5.82 2.08 90 1001.5
20260508033906 16 16 33.8 56.3 0.20 5.82 2.08 90 1001.6
20260508032907 16 12 22.5 56.3 0.23 5.79 2.03 90 1002.0